Theta_e
310 313 315 315 314 314 315 314 314 314 313 312 312 312 311 310 311 310 306 305 304 303 302 301 301 300 299 298 298 297 297 295 297 299 298 296 295 294 294 297 296 294 293 289 289 290 290 288 288 288 290 289 288 289 289 289 289 289 289 288 287 287 287 286 285 284 287 289 288 287 288 288 286 287 286 287 287 288 288 288 287 287 287 287 287
309 311 313 314 314 313 313 313 313 312 312 311 311 310 310 310 308 305 305 303 303 302 301 299 298 298 298 297 296 295 294 294 294 297 295 293 292 295 295 296 294 291 290 289 289 288 289 287 286 286 287 287 287 287 287 286 287 287 287 286 286 286 287 285 284 284 283 285 285 287 286 287 284 287 286 285 286 286 286 286 287 287 286 286 286
307 309 310 311 312 312 311 310 310 309 309 308 308 308 307 305 303 304 302 299 299 300 298 296 296 297 296 295 294 293 294 293 294 296 295 295 294 294 294 293 290 289 288 288 287 287 286 286 285 286 287 287 286 285 285 285 286 286 286 286 285 285 285 285 283 282 283 283 285 284 284 285 285 285 286 286 286 286 285 285 285 286 286 286 285
306 307 308 308 308 307 307 306 307 307 307 306 306 304 303 301 301 302 300 299 298 295 295 294 295 295 293 293 293 294 293 293 294 296 296 295 293 291 290 290 289 289 288 287 286 286 286 285 285 286 287 287 286 286 285 285 285 286 286 286 286 285 285 285 284 283 282 281 283 283 284 283 284 285 286 286 285 284 284 284 285 285 285 285 285
304 304 304 304 303 304 304 304 305 304 304 303 302 299 299 299 299 299 297 297 295 293 292 293 294 295 294 294 294 293 293 293 294 293 293 292 291 289 289 288 288 287 287 286 285 286 286 286 285 285 286 286 286 286 286 286 286 285 285 285 285 285 285 285 284 284 282 281 282 283 284 284 284 284 285 283 283 283 284 284 284 284 284 285 285
301 302 302 303 302 302 302 302 303 302 300 299 297 297 297 297 297 296 297 295 292 292 292 293 294 294 293 294 294 293 292 292 292 290 288 287 288 288 288 287 286 286 285 285 286 286 286 285 285 285 286 286 286 285 285 285 285 285 284 284 284 284 284 284 284 283 282 282 282 281 283 282 282 283 284 283 282 281 282 283 283 284 283 283 284
300 301 300 302 301 301 301 301 301 298 297 296 295 295 296 295 295 295 293 293 292 292 292 292 291 293 292 291 291 291 290 289 288 288 287 287 287 287 286 286 285 285 285 285 285 285 285 285 285 285 285 286 285 285 285 285 284 284 284 284 284 283 283 283 283 282 282 281 281 282 282 283 282 281 283 283 282 282 280 280 280 282 283 282 282
299 300 300 299 299 298 298 296 296 295 294 293 294 294 293 293 293 292 292 292 292 291 291 291 289 289 289 289 289 288 287 287 287 287 287 287 286 286 286 286 286 286 285 285 285 285 285 285 285 285 285 285 285 285 285 284 285 284 284 284 284 283 282 282 281 281 281 281 280 280 281 280 281 282 283 282 281 281 281 280 278 279 280 282 282
298 298 298 299 297 295 293 293 292 292 292 292 292 292 292 291 291 290 291 290 290 290 290 288 287 287 287 287 287 287 287 287 287 287 286 286 287 287 286 286 285 285 285 284 284 284 285 285 285 285 285 285 285 285 285 285 284 284 284 284 283 282 282 281 281 281 280 280 280 281 280 280 280 280 279 279 279 278 280 280 279 280 281 280 281
297 297 297 295 292 292 291 291 291 291 291 291 291 291 290 290 290 290 290 289 289 288 287 287 287 287 287 286 287 287 287 287 286 287 287 286 286 286 286 285 285 284 284 283 283 283 283 283 284 283 283 284 284 285 285 285 285 285 284 284 283 282 281 280 280 280 280 279 279 279 278 278 279 279 279 279 280 281 280 279 278 279 279 279 280
296 296 295 292 291 291 291 291 291 291 291 291 290 290 289 290 289 289 288 288 288 287 288 288 288 288 287 287 287 288 288 287 286 289 289 288 286 286 285 285 285 284 284 283 282 282 283 283 283 283 283 283 284 284 284 284 284 284 284 283 283 282 281 280 280 280 279 279 279 278 278 278 279 280 279 280 280 279 279 279 279 278 277 275 274
295 295 293 291 291 291 291 290 291 291 290 290 289 289 289 289 289 288 288 287 287 288 288 288 288 288 288 288 288 288 287 287 289 290 290 288 287 285 285 285 284 284 284 283 283 282 282 282 282 282 283 283 283 283 283 284 284 283 283 282 282 282 283 282 280 279 279 278 278 278 278 278 278 279 279 279 279 279 279 279 278 277 276 275 276
294 294 292 291 291 291 290 291 291 290 290 289 289 288 288 289 288 288 288 287 287 288 287 287 287 287 287 287 287 287 287 289 290 290 289 288 287 286 285 284 284 284 284 283 283 282 282 281 281 281 281 281 281 283 283 283 283 282 282 281 281 282 282 283 283 282 281 279 278 278 278 279 278 279 280 279 280 278 278 277 277 277 277 276 276
293 292 291 291 291 290 290 291 290 290 289 289 289 288 289 288 288 288 287 287 287 287 286 286 286 286 286 286 286 287 288 289 291 290 289 288 287 286 284 284 284 284 283 283 283 282 282 281 280 280 281 281 282 282 283 283 283 282 281 281 281 281 281 281 280 281 281 280 279 278 280 281 279 280 280 281 278 277 277 276 277 276 276 275 277
292 291 290 290 290 290 290 291 290 289 289 288 288 288 289 288 287 287 287 287 287 286 285 285 285 285 285 286 287 287 288 290 290 289 289 288 287 285 284 283 283 282 282 282 282 282 281 281 281 280 280 281 282 283 283 283 282 281 280 280 280 280 280 279 280 280 280 281 281 281 281 281 280 280 280 280 280 279 278 277 277 277 276 277 277
292 290 290 290 290 290 290 290 289 288 288 288 288 288 288 287 287 286 286 286 285 285 284 285 284 284 285 286 286 286 288 290 289 289 289 288 286 283 282 282 281 281 281 281 281 281 281 280 280 280 280 280 281 283 283 283 281 279 278 279 279 279 279 280 282 282 282 282 281 280 280 280 281 281 280 280 279 279 279 279 278 276 275 273 273
291 290 290 290 290 290 290 290 288 288 287 287 287 287 287 286 286 285 285 285 284 284 284 284 284 284 285 285 286 286 287 288 289 289 288 287 284 282 282 281 280 280 280 280 279 279 279 280 280 280 280 280 282 283 283 282 280 278 277 276 275 276 277 280 281 281 280 280 280 280 280 280 280 281 280 280 279 279 277 275 274 274 272 271 271
291 291 291 290 290 290 290 290 288 287 287 287 287 287 286 286 285 285 285 284 284 283 283 283 283 284 284 285 285 285 285 286 288 288 287 286 283 281 281 280 279 279 278 279 279 279 279 279 280 280 280 280 282 283 283 282 279 279 277 275 274 275 277 279 278 278 277 277 277 278 278 278 278 278 277 278 278 278 275 272 274 273 271 271 269
291 290 290 290 289 289 289 288 288 287 287 287 287 286 285 285 284 284 285 284 283 283 282 282 282 283 283 284 284 284 284 285 287 287 286 285 282 281 280 279 278 278 278 277 278 278 278 279 279 280 280 281 282 282 282 281 280 279 277 275 275 274 276 277 275 273 272 272 273 274 274 275 275 274 274 276 277 277 276 275 274 272 270 270 270
290 290 289 288 288 287 287 287 287 287 287 286 286 285 285 283 283 283 283 283 282 281 281 281 281 281 281 282 283 284 283 284 285 286 285 284 283 280 279 278 277 277 277 277 276 277 277 278 279 281 282 282 282 282 281 281 280 279 276 273 274 274 277 273 273 272 271 272 272 273 272 273 272 272 273 273 274 276 275 274 273 272 270 270 270
288 288 287 287 286 286 286 287 286 286 286 286 285 283 283 283 282 282 281 281 281 280 280 280 280 279 280 281 282 283 283 282 284 285 285 284 283 280 279 279 278 277 276 275 275 275 276 277 277 280 281 281 281 281 281 281 280 277 276 275 276 277 276 271 270 273 271 271 271 271 271 270 270 270 271 272 273 274 273 273 272 272 271 270 269
285 285 285 285 284 284 285 285 285 285 284 283 283 282 282 282 282 282 281 281 280 279 279 279 279 278 278 279 280 281 282 282 282 284 284 284 283 281 279 278 279 277 276 275 275 276 276 277 277 279 280 280 280 280 280 281 280 276 277 278 278 277 273 271 270 270 270 270 269 269 268 268 268 269 270 271 272 272 271 271 271 272 272 272 271
284 284 283 283 283 283 283 283 283 283 282 283 282 281 281 281 281 281 280 280 280 279 278 278 278 277 277 277 278 279 281 282 283 282 283 283 283 282 281 279 280 277 276 275 275 275 277 277 277 279 280 280 280 280 280 280 277 277 277 276 275 274 272 270 270 269 268 268 268 267 267 267 267 268 269 269 270 270 270 270 270 271 271 271 272
282 282 281 281 281 281 281 281 281 282 282 282 282 281 280 281 280 280 280 280 279 278 278 278 277 277 276 276 277 278 280 281 283 282 283 283 283 283 282 281 280 277 276 276 276 276 276 277 277 279 280 279 279 279 279 278 276 276 275 274 273 271 269 269 268 268 267 267 266 266 266 267 267 268 268 269 269 268 268 269 269 269 269 270 271
281 280 280 279 280 279 279 280 280 280 281 281 281 280 279 279 279 279 280 280 279 278 278 277 277 277 276 276 276 277 278 279 281 282 282 282 283 283 283 282 280 279 276 276 277 277 277 278 279 279 279 279 279 278 276 275 275 274 273 272 269 266 268 267 267 266 266 266 265 265 265 266 267 268 269 268 268 268 267 267 268 268 268 269 269
279 279 277 278 277 277 278 277 277 277 278 280 280 280 280 279 279 279 280 279 279 279 278 277 277 276 276 276 276 276 277 278 279 280 281 282 282 283 282 282 280 279 276 276 277 278 279 279 279 279 278 276 273 271 270 271 273 272 270 269 266 266 266 266 266 265 265 265 265 264 265 266 267 267 267 267 266 265 265 265 265 265 266 266 267
278 276 276 275 275 276 277 277 277 276 276 278 278 279 279 280 280 279 280 279 279 278 277 276 276 276 276 276 276 275 275 276 277 278 279 280 280 280 281 280 280 279 276 276 277 277 278 277 275 275 274 274 273 272 271 270 268 267 266 266 265 265 266 266 265 265 265 265 264 264 265 266 267 266 265 264 264 264 265 264 264 264 265 265 265
277 276 275 275 275 275 276 276 276 277 277 278 278 278 279 279 279 279 279 279 278 278 277 277 276 276 276 276 275 275 275 275 275 276 277 278 278 278 278 278 278 277 275 275 274 274 274 275 273 270 269 268 267 265 265 265 265 264 264 263 263 264 266 267 266 265 265 265 264 264 264 265 264 264 264 264 263 264 264 263 263 263 264 264 264
274 273 273 274 274 275 275 275 276 276 276 275 274 274 278 278 279 278 276 276 279 279 278 278 278 279 278 277 275 274 274 274 275 278 277 279 277 276 276 276 276 275 275 274 270 268 268 267 266 267 266 265 264 264 264 263 263 262 260 261 262 263 263 264 263 263 264 263 262 263 263 264 264 264 263 262 262 263 263 263 263 262 263 264 263
272 272 272 273 273 273 273 274 273 274 275 275 274 271 275 278 277 277 277 277 280 281 281 279 279 279 278 278 277 277 276 276 279 279 279 279 279 279 278 278 277 275 276 276 270 268 267 266 266 265 264 264 264 263 263 262 262 261 261 264 263 262 263 263 263 263 263 263 262 262 263 263 263 262 262 262 262 262 262 263 261 262 262 262 262
272 271 272 271 272 272 272 273 272 273 273 274 273 274 271 274 279 279 279 278 279 279 280 281 281 281 278 277 278 278 278 279 279 280 280 280 280 279 278 278 278 277 278 273 269 266 265 265 264 264 264 263 263 263 262 262 262 261 260 260 261 261 262 262 262 262 262 261 262 262 263 263 262 262 261 261 261 261 261 261 261 261 261 261 261
273 271 271 270 272 271 271 271 271 272 272 272 273 273 274 274 273 278 278 278 279 279 280 280 280 281 280 278 276 276 278 279 280 280 280 280 280 280 279 279 279 278 279 275 268 267 266 265 264 263 263 262 262 262 262 261 261 260 260 259 260 260 261 261 262 261 261 260 261 262 262 262 262 261 261 261 260 259 259 259 260 260 260 261 261
271 270 270 270 271 271 271 271 270 270 271 271 271 272 274 275 275 275 276 279 279 279 280 280 280 280 280 280 279 278 278 279 281 281 280 281 280 280 279 280 279 279 279 271 268 267 265 265 264 263 262 262 262 262 262 261 260 260 259 259 259 260 261 260 261 260 260 260 261 261 262 261 261 261 260 260 259 258 258 259 259 259 260 260 260
268 270 270 270 270 270 270 270 270 270 270 271 271 272 274 275 276 276 275 275 276 278 280 280 280 280 280 280 279 279 280 280 281 281 281 281 280 280 280 278 280 280 277 270 268 267 266 263 263 263 262 262 261 261 260 260 260 259 259 259 259 259 259 259 258 259 259 259 260 260 261 260 260 260 259 259 259 258 258 258 258 258 258 259 259
267 269 269 269 270 270 269 270 270 269 270 270 271 272 272 272 272 274 275 275 275 275 275 276 279 280 278 278 279 279 280 281 281 281 281 281 281 281 281 276 275 275 275 269 267 267 265 264 263 262 262 261 260 260 260 260 259 259 259 258 258 258 258 258 258 258 258 258 259 259 259 259 259 259 259 258 257 257 257 258 258 258 258 258 259
267 268 269 269 269 269 269 269 270 270 270 270 269 270 271 271 271 272 274 274 274 274 274 275 275 278 279 278 279 279 280 281 281 281 280 281 280 280 274 272 272 272 271 268 267 266 265 265 263 262 262 261 261 260 260 259 259 259 258 257 258 257 257 257 258 257 258 258 258 259 259 258 259 258 258 257 257 257 257 257 257 258 258 259 259
267 268 268 268 269 269 269 269 269 269 271 268 269 269 269 270 270 270 271 272 272 271 272 271 271 271 275 275 277 279 280 280 280 280 280 280 280 278 274 272 271 270 268 266 265 265 263 262 262 262 261 260 260 260 259 258 258 257 258 258 256 256 256 256 256 257 257 257 257 256 256 257 257 256 257 257 257 257 257 257 257 258 258 258 259
266 268 268 268 268 269 270 270 269 270 270 269 269 269 270 270 270 270 270 270 270 269 268 269 271 272 272 273 276 276 277 279 279 279 279 279 277 276 273 270 269 268 267 267 265 265 264 263 261 261 260 260 259 258 258 257 257 256 256 256 256 256 258 258 259 258 257 257 256 255 256 256 256 256 257 257 257 257 257 257 257 257 257 257 258
266 269 270 270 270 270 270 269 268 269 268 268 268 267 268 268 268 268 268 269 269 269 268 268 269 269 271 272 273 275 275 275 275 274 275 275 275 275 272 269 267 267 267 266 264 263 264 262 261 260 260 259 259 258 257 257 256 255 255 255 255 255 256 256 255 255 255 255 255 255 255 256 256 256 257 256 256 256 256 256 257 257 256 256 257
268 268 268 269 269 269 268 268 268 268 268 268 268 268 268 268 268 268 268 268 268 268 268 268 268 269 270 271 271 272 272 273 273 273 273 273 272 271 269 268 267 266 265 264 263 263 262 261 260 259 259 258 258 257 257 257 256 256 255 255 255 255 255 255 255 254 254 254 254 254 255 254 255 255 256 256 256 256 256 256 257 257 257 256 257
266 267 266 268 268 267 266 267 267 267 268 268 268 267 267 268 268 268 268 268 268 268 268 268 269 269 270 270 272 273 272 272 273 272 272 271 271 269 267 267 266 265 264 263 263 262 261 261 259 259 258 258 257 257 256 256 256 255 255 255 255 255 255 254 254 254 254 254 254 254 254 254 255 255 254 255 257 258 257 257 257 257 256 256 257
266 266 266 266 266 266 266 266 266 266 267 266 267 267 267 267 267 267 268 268 268 268 268 268 269 268 269 271 271 272 271 271 271 271 271 270 269 268 267 266 266 266 265 265 263 262 261 260 259 258 257 257 256 256 256 255 255 255 255 255 255 255 255 255 254 254 253 254 253 253 253 254 254 255 256 257 257 256 256 256 256 256 256 256 256
265 265 266 265 266 266 266 266 266 266 266 266 266 266 266 266 266 267 267 267 267 267 267 267 268 267 267 270 270 271 271 270 268 269 269 269 268 267 266 266 266 265 264 264 263 262 261 260 259 258 258 257 257 256 256 256 256 255 255 255 255 254 254 254 254 254 253 253 253 253 253 253 255 255 255 255 255 255 255 255 255 255 256 256 256
264 264 265 265 265 265 265 265 265 265 265 265 265 265 265 265 265 265 265 265 265 266 266 266 266 266 265 266 268 269 268 269 269 269 268 267 266 266 266 265 265 264 262 261 261 260 260 260 259 259 258 258 257 257 257 257 256 256 255 255 255 255 254 254 254 254 253 253 253 253 253 253 254 254 254 255 254 254 254 254 255 255 256 256 256
263 263 263 263 263 263 264 264 264 264 264 264 264 264 264 264 264 264 265 265 265 265 265 265 265 265 265 264 265 266 267 267 267 267 267 267 266 265 264 264 263 262 261 260 260 259 258 259 259 258 257 257 257 256 256 256 256 256 256 256 255 255 255 255 255 255 254 253 253 254 254 254 253 253 253 253 254 254 255 255 255 256 255 255 255
262 263 262 263 263 263 263 263 263 263 263 263 263 263 263 263 263 263 263 264 264 264 264 264 265 265 264 264 265 265 266 267 267 267 266 266 266 264 264 263 262 261 261 260 259 258 257 258 258 258 258 257 257 256 256 256 255 255 255 255 255 256 256 256 255 253 253 253 253 253 253 253 253 253 254 254 254 255 255 254 254 255 254 254 255
261 261 261 262 262 262 262 262 262 262 262 262 262 263 263 263 263 263 263 263 263 263 264 264 264 264 264 264 264 265 265 266 266 266 266 266 265 264 263 262 261 260 260 259 259 258 257 257 257 257 257 258 257 256 256 255 255 254 254 254 254 254 254 254 253 253 253 253 253 252 252 253 253 253 254 255 255 255 255 255 254 253 254 255 254
260 261 261 261 262 261 262 262 262 262 262 262 263 263 263 263 263 263 262 262 263 263 263 264 264 264 264 264 265 265 265 265 265 265 265 264 264 263 263 262 260 260 259 258 258 257 257 257 257 257 257 257 256 256 256 255 255 254 254 254 254 254 254 254 253 252 252 252 252 252 251 251 252 252 253 253 253 254 254 254 254 255 254 254 255
260 260 260 260 261 261 261 261 262 262 262 262 262 262 262 262 262 262 262 263 263 263 263 263 264 264 264 264 264 264 264 264 264 264 264 263 263 262 262 261 260 259 259 258 258 257 257 257 256 256 257 257 256 256 256 255 255 254 254 253 253 254 254 254 253 252 253 252 252 252 252 252 251 252 253 253 254 254 254 253 253 254 254 254 254
259 259 259 260 260 260 261 261 261 261 261 261 261 261 261 261 261 262 262 262 263 263 263 264 264 264 264 263 263 263 263 262 262 263 263 262 262 262 261 260 259 259 259 258 258 257 257 256 256 256 256 256 256 256 255 255 255 254 254 254 254 255 255 255 255 254 254 253 252 252 252 252 252 253 253 254 254 253 253 253 253 253 254 253 253
258 258 258 259 258 259 259 258 258 259 259 259 259 260 260 260 261 261 262 262 262 263 263 263 263 263 263 263 263 263 262 262 262 262 262 262 261 261 260 259 259 259 258 258 258 258 257 256 256 256 255 255 255 255 255 255 254 254 254 255 255 255 255 255 255 255 255 255 253 253 253 253 253 253 253 253 253 252 252 253 253 253 253 253 253
Wind_Speed
8 9 8 8 8 9 8 8 8 8 8 9 10 10 9 10 10 10 9 9 9 9 9 10 9 9 9 8 9 8 9 8 6 8 8 8 7 8 7 8 9 6 7 5 5 7 8 7 5 4 5 6 5 5 5 4 4 4 4 4 3 2 2 2 3 6 5 3 5 7 7 7 7 6 8 8 9 9 9 8 9 9 9 8 9
7 7 7 7 9 9 9 8 8 8 9 9 9 9 9 9 9 9 11 10 10 11 10 9 9 9 9 8 8 8 9 10 8 8 9 8 7 7 8 8 8 7 7 8 7 6 8 8 6 6 5 6 5 5 5 4 4 5 3 3 3 2 1 1 3 3 6 2 5 4 5 6 8 6 9 12 11 10 11 10 8 8 8 9 9
5 5 6 7 8 8 8 8 8 9 10 9 9 9 9 8 9 11 9 9 7 10 10 9 9 9 9 9 8 9 8 9 9 9 10 11 9 7 7 8 10 9 9 9 8 8 8 7 7 5 5 6 5 5 5 5 4 4 4 3 3 2 1 0 2 3 5 7 4 5 6 7 7 10 10 9 9 10 12 11 10 8 7 9 9
6 6 6 6 5 6 7 7 8 9 9 8 9 8 8 8 8 9 10 10 10 7 7 9 9 9 10 9 9 9 8 8 8 8 10 9 9 8 8 9 9 9 9 9 9 7 8 8 6 6 5 5 4 4 4 4 4 3 4 3 2 2 1 1 2 3 4 7 4 6 6 7 8 8 8 8 10 11 9 10 9 9 9 8 10
5 6 6 6 6 6 6 7 8 8 9 7 8 8 8 9 8 10 9 9 9 9 7 7 9 9 10 10 9 9 9 9 9 8 7 7 9 10 9 9 9 8 7 8 7 8 7 7 8 6 5 6 4 4 3 4 3 4 3 3 3 2 2 2 3 3 6 8 8 5 6 6 6 7 7 10 11 10 9 10 11 11 8 7 7
5 5 6 7 7 8 8 8 8 9 8 8 9 9 9 9 9 7 10 11 8 7 10 7 9 9 8 9 9 8 8 8 8 9 10 10 10 9 9 8 8 7 8 7 7 7 7 7 7 6 6 6 5 4 3 4 4 3 4 4 3 2 3 3 3 4 5 7 8 8 5 7 8 6 6 9 12 13 13 11 8 7 9 10 8
5 6 6 7 7 8 8 8 8 8 8 8 8 8 9 9 10 10 7 10 11 9 7 8 6 9 8 8 9 9 8 8 10 12 11 10 11 10 9 8 8 7 7 7 7 7 6 7 6 6 6 5 6 5 6 5 3 5 4 4 3 3 3 4 4 5 6 7 7 6 7 6 6 8 7 7 8 8 12 16 17 13 11 10 13
5 6 6 6 6 7 6 5 7 7 7 7 8 7 7 7 7 7 9 9 9 9 10 9 7 7 8 8 8 9 11 12 12 11 10 10 10 9 10 9 9 7 6 5 5 6 7 7 7 6 5 5 5 5 5 5 4 5 4 4 4 4 4 4 5 5 6 6 6 8 7 8 8 6 6 7 9 7 7 12 15 17 17 16 12
5 6 6 7 7 6 6 5 5 6 7 7 7 7 7 7 7 7 7 8 7 8 8 10 11 10 9 11 11 11 12 12 11 12 12 10 10 10 10 10 9 9 7 6 5 6 6 6 5 5 6 6 7 6 6 5 4 4 3 3 3 4 3 3 4 5 5 6 7 7 8 8 8 10 11 10 11 12 13 13 13 14 15 16 14
6 6 6 5 5 6 6 6 7 7 8 8 8 7 8 8 8 8 8 8 8 8 9 11 12 13 12 11 10 10 10 9 10 14 12 11 11 9 9 9 9 8 9 8 6 6 5 5 5 8 8 7 7 8 8 7 7 5 3 3 3 3 3 3 4 4 5 6 7 8 9 8 8 10 11 11 10 11 13 13 13 14 15 15 13
6 7 7 6 6 7 7 7 8 8 8 8 8 8 8 8 8 8 8 9 10 9 11 12 11 10 10 10 10 9 8 8 14 15 13 14 11 10 9 8 7 8 8 9 8 7 6 5 5 5 6 4 6 7 7 7 6 5 5 4 3 2 2 3 3 4 5 6 6 7 8 10 10 10 10 11 11 12 11 11 12 13 13 15 16
8 7 7 8 8 8 8 8 8 8 8 8 9 8 8 8 8 9 9 9 8 9 10 11 10 11 9 10 9 9 8 11 17 14 14 15 10 10 8 8 7 7 7 8 7 7 7 6 4 4 3 4 4 4 4 5 5 4 4 3 3 3 3 2 3 4 5 5 6 7 8 9 10 10 10 11 12 12 11 10 11 11 13 13 12
6 7 7 9 9 8 8 9 8 8 8 9 9 8 9 9 9 9 10 9 9 11 10 11 11 10 10 11 9 9 8 13 14 16 15 15 14 10 7 7 8 7 7 8 8 7 7 6 6 4 3 5 3 3 3 3 4 4 3 1 1 2 3 4 5 5 5 5 6 7 7 9 11 10 10 12 12 12 12 11 11 12 12 13 12
7 6 6 7 8 8 8 9 9 10 10 10 10 10 10 10 9 8 8 9 10 9 9 10 9 10 10 10 10 9 9 14 15 15 15 15 14 10 7 7 6 7 7 7 6 7 7 7 7 6 4 3 2 2 2 4 3 2 1 1 0 1 3 5 7 8 7 5 6 8 9 9 10 12 12 11 11 11 11 12 13 14 14 14 17
6 6 7 6 6 8 9 9 9 9 9 9 9 9 9 9 9 9 9 10 11 11 12 11 9 9 8 8 10 9 8 14 14 15 15 15 15 10 7 6 7 7 6 6 6 6 6 5 6 6 6 5 3 3 3 4 3 2 1 1 1 2 3 4 4 4 4 5 7 8 9 9 10 11 10 9 10 10 10 11 12 13 14 15 15
7 6 8 9 9 9 9 8 7 7 8 8 9 9 9 10 10 8 8 7 5 6 6 7 10 10 9 9 10 9 9 14 14 16 16 16 16 7 6 7 7 7 6 6 5 5 5 5 6 6 5 5 4 5 4 4 3 3 2 1 1 2 3 5 7 5 5 6 7 8 9 9 11 11 10 10 9 9 9 8 8 9 11 13 14
8 9 9 9 9 9 9 10 8 9 8 9 9 9 9 9 8 7 9 8 9 9 9 8 8 9 10 10 11 9 9 13 15 16 16 17 12 6 7 6 6 6 6 6 5 5 5 5 5 5 5 4 5 4 3 4 3 2 1 1 1 2 3 4 2 5 9 11 12 13 13 13 13 14 14 15 11 10 8 9 8 9 10 11 13
9 9 8 7 7 7 8 9 9 9 9 10 9 8 7 6 8 8 10 11 10 9 8 8 7 8 10 10 10 11 9 12 15 15 16 16 11 10 6 7 7 6 6 6 5 5 5 8 5 5 5 4 5 4 3 3 2 2 2 1 2 3 4 3 3 4 7 10 11 11 12 12 12 13 13 13 13 9 6 7 9 8 9 9 11
9 9 7 6 6 6 5 6 7 8 9 8 8 9 9 9 8 7 7 7 8 7 8 8 7 6 6 8 10 11 10 11 14 15 15 15 11 7 7 7 8 6 6 6 4 4 4 5 6 5 5 4 5 4 3 2 2 2 2 1 2 4 4 3 3 5 5 4 5 4 6 7 7 7 8 12 11 8 6 6 7 7 9 9 10
6 5 6 6 6 5 5 6 7 9 9 8 7 8 7 8 9 9 7 7 8 8 7 7 9 7 6 7 8 8 10 9 11 15 15 14 13 8 5 8 8 8 6 7 6 4 4 4 6 8 7 6 5 4 4 3 3 3 2 1 1 4 1 2 3 3 3 4 4 4 5 6 6 6 7 7 6 5 5 6 7 7 8 9 9
6 6 7 7 7 7 5 6 8 7 7 8 7 7 7 9 9 9 9 8 8 8 8 7 8 7 6 6 7 7 7 9 10 14 14 14 14 11 7 8 7 7 7 6 5 6 6 5 3 8 8 7 6 5 4 3 4 5 2 2 2 4 2 2 2 6 3 3 4 4 4 4 4 5 4 4 3 4 6 7 7 7 8 8 9
6 7 7 8 8 8 8 6 7 8 7 8 9 8 6 7 8 9 8 9 11 10 8 8 7 7 5 5 6 6 7 9 9 12 14 14 13 12 7 6 8 10 7 5 5 5 6 6 5 8 9 7 6 5 4 4 5 6 1 1 2 3 1 1 1 2 2 3 3 3 3 4 4 4 4 4 4 6 6 7 7 8 8 8 9
6 6 6 6 7 8 8 9 8 7 8 9 10 9 8 8 8 8 9 9 10 10 10 9 9 7 6 5 4 5 6 7 10 9 13 14 14 11 10 8 12 8 10 8 7 6 6 6 6 10 9 8 7 6 5 5 5 1 2 0 0 1 3 0 1 1 2 2 2 3 3 4 5 5 5 5 6 6 7 7 8 8 9 9 11
5 6 6 6 6 6 6 7 7 6 7 8 7 8 8 7 7 7 8 9 9 9 8 8 8 8 8 6 5 5 5 6 9 11 10 14 13 12 12 12 12 6 4 5 6 6 6 7 7 11 10 9 8 7 6 5 3 4 3 2 3 3 0 0 0 1 2 2 2 3 4 5 5 6 6 7 8 8 8 8 7 8 8 8 10
6 6 6 6 6 5 5 5 5 5 6 8 9 8 8 8 8 6 7 7 8 9 8 8 9 8 6 7 6 6 6 6 6 9 13 12 13 13 13 14 12 12 6 5 6 6 8 11 12 11 10 9 9 9 6 6 5 4 2 3 4 1 0 0 0 1 1 2 2 3 4 5 5 6 8 9 10 9 8 7 7 7 7 9 10
6 6 5 5 5 5 6 4 4 4 4 4 5 6 8 8 7 7 7 6 7 7 8 7 7 8 7 5 6 7 7 6 6 6 8 9 10 14 13 13 12 11 8 7 10 11 12 12 12 11 10 8 6 4 4 3 4 4 4 4 1 0 0 0 0 0 1 2 3 3 4 5 6 6 8 8 8 9 9 11 11 10 9 9 8
5 5 5 5 4 5 6 5 4 4 4 4 4 5 5 6 6 7 7 8 8 7 8 9 8 8 9 8 6 7 7 7 6 6 6 6 7 8 9 9 12 12 8 7 9 7 9 7 6 7 7 9 8 7 6 5 3 2 1 1 0 0 0 0 0 1 2 2 3 4 4 5 6 6 7 8 8 7 8 10 9 10 11 11 11
7 6 6 5 5 5 5 6 7 5 5 6 6 6 6 6 8 10 11 11 11 10 9 10 11 11 10 7 6 7 6 7 8 9 9 9 9 7 7 7 9 9 7 7 6 5 5 7 6 3 4 5 4 4 3 2 2 2 1 0 0 1 2 2 2 1 1 2 3 4 4 5 5 6 6 7 6 7 7 8 9 10 10 10 10
4 4 4 5 5 4 5 6 6 6 6 5 4 4 8 8 8 6 3 3 6 9 11 11 10 9 9 11 11 8 7 8 12 13 12 12 11 10 11 11 9 8 9 11 8 5 5 5 5 5 5 6 4 3 2 1 1 1 1 1 0 1 0 0 1 1 1 2 3 4 4 5 5 5 6 6 6 7 7 7 7 8 9 7 7
4 4 4 4 4 4 4 4 4 5 6 6 5 2 2 3 4 6 6 2 4 3 5 7 7 7 8 9 11 14 15 13 12 18 17 19 19 15 11 12 12 9 13 17 9 8 8 6 5 6 7 7 7 5 4 3 3 2 1 2 1 0 1 1 1 1 2 2 3 3 4 4 5 6 6 6 7 6 7 8 7 8 8 9 9
4 4 3 3 3 3 4 4 4 4 5 5 5 5 3 1 3 3 4 4 4 4 5 6 8 9 8 8 8 2 5 10 17 19 19 19 19 19 18 17 18 18 19 13 8 7 7 8 8 5 5 6 7 6 5 5 4 3 3 2 1 2 3 2 2 2 3 2 3 3 3 4 5 6 6 6 7 7 6 5 5 6 7 8 8
6 5 4 3 4 4 2 3 3 3 3 3 4 5 5 5 2 2 4 5 5 6 6 7 8 10 10 8 6 3 6 11 17 20 20 21 20 19 19 19 20 19 20 16 8 9 7 7 7 7 6 6 6 5 5 6 5 5 3 2 3 2 3 3 2 1 2 1 2 3 3 4 5 5 6 6 7 7 7 7 6 7 6 6 6
5 4 4 4 4 4 3 3 3 3 3 3 4 3 5 5 7 4 1 3 5 6 7 8 9 10 11 11 13 10 9 11 16 19 20 21 20 19 19 19 19 19 20 11 9 8 8 8 7 6 7 8 7 7 6 6 5 4 4 3 3 3 2 2 2 1 2 2 3 4 4 4 5 6 6 6 6 7 7 7 6 6 6 7 7
4 5 5 5 5 4 4 4 4 4 3 3 3 3 3 3 3 2 4 2 1 3 6 8 9 10 12 13 13 13 12 15 17 18 19 20 20 19 18 14 18 21 18 10 9 8 9 9 8 9 7 8 7 7 6 6 5 4 4 3 3 2 3 2 1 2 1 2 2 4 4 5 5 4 5 5 6 6 7 7 7 8 8 7 8
3 4 7 5 5 4 4 3 3 3 3 3 3 3 4 3 2 3 4 5 5 5 3 4 7 9 7 8 12 13 14 15 17 18 19 20 20 20 18 10 11 11 12 8 9 9 9 9 7 9 8 8 7 7 8 7 5 5 5 5 4 3 2 2 2 1 2 2 4 3 3 5 3 3 4 5 6 6 6 6 6 6 7 8 8
2 2 2 4 4 4 4 4 4 5 4 4 3 2 2 2 4 3 3 4 4 5 3 4 3 5 10 9 12 13 14 15 16 19 18 20 20 21 12 13 11 10 10 8 9 8 7 8 9 10 7 8 8 8 7 8 7 6 4 4 5 4 4 3 3 2 2 3 4 4 5 4 3 3 2 3 4 5 5 5 5 6 7 7 7
1 1 1 2 3 4 4 4 4 4 4 5 4 3 3 3 3 3 4 4 4 3 3 2 1 2 4 5 8 12 14 14 17 17 18 18 21 15 10 11 11 9 8 9 8 7 9 9 8 9 8 9 8 8 8 7 6 5 5 5 4 4 4 3 3 3 3 4 3 3 4 4 3 3 3 4 5 5 5 5 5 6 7 8 9
2 1 0 1 2 2 3 3 3 4 4 3 2 3 3 3 4 4 4 5 4 4 5 5 5 6 7 6 6 6 8 13 15 14 15 16 14 11 10 9 8 9 10 8 9 9 9 7 7 9 7 7 8 8 8 7 5 5 5 4 5 5 7 5 6 4 4 4 3 3 3 4 3 3 4 4 5 5 4 5 5 6 6 7 6
3 4 4 2 1 1 1 3 3 3 3 3 3 3 4 4 4 4 5 5 5 6 5 5 6 7 7 4 5 5 7 8 9 11 10 10 10 9 8 8 8 8 7 8 7 8 8 9 7 6 7 8 8 8 9 8 7 7 6 5 6 5 5 4 4 4 4 4 4 3 3 3 3 3 3 4 5 5 4 4 4 5 6 6 6
3 3 4 4 2 1 0 0 2 2 1 3 2 3 2 4 5 5 4 5 6 6 6 6 7 7 4 5 6 7 10 10 9 9 9 9 10 9 8 9 9 9 9 7 7 9 8 8 8 7 7 9 10 9 8 8 8 8 7 7 7 7 7 6 6 6 6 4 4 4 4 4 3 3 4 5 5 5 4 4 5 5 5 6 7
1 2 2 4 3 2 1 1 1 2 2 2 2 2 3 3 4 3 4 5 6 6 7 6 7 4 5 7 9 11 9 10 9 8 9 10 9 9 9 9 9 8 7 7 7 7 7 8 9 8 8 6 7 8 7 8 8 7 7 6 5 7 6 5 6 5 6 5 6 5 4 3 4 4 4 4 5 5 4 5 5 6 6 5 6
1 1 2 3 3 2 2 2 2 2 2 1 2 3 3 3 3 3 4 5 5 5 6 7 6 5 5 11 12 16 11 8 7 7 8 8 9 9 8 8 8 8 8 8 8 8 9 9 7 6 9 9 9 8 8 8 7 6 7 7 7 6 6 6 6 6 6 6 5 5 4 4 4 5 5 5 4 3 3 3 5 5 5 5 6
1 1 1 1 2 2 2 3 2 2 2 2 3 3 3 4 4 3 4 5 6 6 6 7 6 4 5 8 11 14 10 9 7 9 8 7 8 8 8 9 9 8 7 7 7 8 7 6 6 6 6 7 7 7 8 7 6 6 6 7 7 8 7 5 5 6 5 5 6 5 5 4 5 5 5 4 5 5 5 5 5 5 5 5 5
1 1 0 1 1 2 2 2 3 3 2 3 3 2 3 3 4 4 5 6 6 6 7 7 6 4 4 4 7 8 9 9 8 8 9 7 7 8 7 7 7 7 7 7 7 7 7 7 6 5 5 5 6 7 6 6 6 7 7 6 6 7 6 6 7 7 7 6 6 6 5 4 4 5 4 5 3 3 4 4 4 4 5 4 4
1 1 2 2 1 2 3 2 2 3 3 2 3 3 3 4 4 4 5 6 6 6 6 6 5 5 5 5 6 8 8 8 8 8 8 8 8 9 8 8 8 9 7 5 8 9 9 8 9 8 7 5 6 6 6 6 6 6 6 7 7 7 7 7 7 6 6 6 6 5 4 5 4 5 4 5 5 5 5 4 3 5 5 4 4
1 2 1 2 2 2 3 3 2 3 4 4 5 5 5 4 5 5 6 6 6 6 6 6 6 6 6 6 6 6 6 7 8 8 7 8 9 9 9 9 9 9 10 9 8 11 9 11 12 11 11 8 6 6 5 6 6 6 6 6 7 7 5 5 4 5 6 6 6 5 4 4 4 5 7 5 5 5 5 4 4 3 3 3 4
3 2 2 2 2 2 3 3 4 3 4 4 5 6 6 6 6 6 6 7 7 6 6 6 6 6 6 7 7 8 8 8 8 8 8 9 9 9 9 9 9 10 7 5 6 6 6 7 6 9 9 7 6 7 5 5 5 6 6 5 6 6 5 5 6 6 5 6 5 4 5 4 5 5 7 7 5 5 5 5 4 4 4 3 4
2 2 2 2 3 2 3 4 4 5 4 5 5 5 6 6 6 5 5 5 6 6 6 6 6 7 6 7 7 7 7 7 7 6 6 7 7 7 7 8 9 9 6 4 4 5 4 5 6 6 7 8 9 6 5 5 5 6 6 6 6 7 7 7 7 7 6 5 5 6 6 5 4 5 5 6 5 5 4 4 4 5 4 3 5
3 2 2 2 2 3 3 3 4 4 4 5 5 5 5 5 6 5 6 6 6 6 6 7 7 7 7 7 6 6 6 4 5 5 5 6 6 6 6 7 6 7 6 6 6 6 7 7 7 7 7 7 6 6 6 8 7 7 6 6 7 11 11 11 7 7 7 5 5 5 5 5 5 5 6 6 6 5 6 4 4 3 4 4 4
2 2 2 3 3 3 4 4 3 4 4 4 5 5 5 5 6 6 6 6 6 6 6 6 7 7 6 7 5 5 6 7 8 8 8 7 6 6 7 8 9 8 6 7 6 6 6 5 6 6 6 6 6 6 6 7 6 6 6 7 10 12 11 12 11 10 7 4 6 5 6 6 6 6 6 6 6 6 6 5 4 5 4 3 3
3 2 3 3 3 4 3 4 4 4 4 4 5 5 5 5 5 5 5 6 6 6 6 7 7 7 7 5 4 6 5 6 6 7 8 8 8 8 8 8 8 8 5 5 5 5 5 6 5 6 5 6 6 5 5 5 5 6 8 11 12 12 12 11 8 11 13 10 5 6 7 7 7 7 6 6 5 6 8 6 5 4 4 3 3
Wind_Direction
205 214 200 205 194 194 192 189 187 179 172 177 178 181 174 172 173 168 149 164 154 153 154 158 154 153 150 149 148 150 145 142 148 143 136 142 140 140 141 132 124 121 113 74 110 120 120 111 106 103 116 117 118 117 113 109 100 102 103 116 119 127 154 214 245 276 279 250 296 309 319 333 320 327 318 321 320 322 317 313 318 322 320 323 322
210 207 204 199 199 194 190 185 180 177 177 176 179 176 172 173 162 151 165 159 159 153 157 155 148 150 148 144 149 146 147 130 139 143 143 132 130 141 139 135 130 123 132 136 132 128 131 130 125 122 124 122 124 119 121 116 111 104 110 115 117 106 105 222 267 268 293 297 305 307 309 332 313 328 332 326 323 322 323 321 320 319 319 320 319
209 210 206 201 199 193 182 181 176 177 177 178 178 172 169 161 158 159 157 154 155 152 153 151 147 147 141 146 127 132 146 125 135 144 145 144 137 142 142 141 135 151 154 153 146 141 132 127 127 130 133 121 116 115 120 119 117 117 118 122 118 109 56 311 307 288 295 307 297 312 323 325 320 322 325 318 313 317 317 319 318 314 308 308 308
194 195 198 199 187 176 180 174 174 175 178 176 171 165 158 157 158 156 153 151 147 140 144 143 141 143 122 125 143 146 146 147 150 154 152 148 145 132 105 127 151 160 154 149 147 143 135 127 132 137 137 113 113 113 117 122 125 127 126 122 122 97 23 351 312 297 301 310 303 316 313 316 316 315 314 313 315 316 311 304 304 309 312 312 314
191 188 181 177 172 173 173 171 175 176 173 165 162 153 153 152 155 150 145 144 141 138 136 141 139 143 150 154 153 153 154 152 147 143 133 131 132 127 141 150 155 153 149 145 141 135 133 130 140 143 145 120 114 109 107 109 115 115 108 112 79 60 29 359 330 311 301 300 305 305 306 303 303 306 321 331 325 315 307 304 309 305 300 291 285
185 177 176 170 171 172 172 172 176 172 161 156 157 157 152 154 150 150 149 141 138 141 143 149 149 148 148 153 150 147 147 148 145 136 119 106 130 138 145 147 148 143 139 137 137 137 135 135 138 142 138 122 124 124 133 133 131 119 101 78 68 46 29 358 341 328 313 302 305 310 315 322 322 321 338 340 333 327 324 317 300 287 309 320 316
173 170 172 174 171 176 173 174 164 159 159 157 154 153 154 152 150 148 146 143 142 141 143 138 143 145 148 147 152 150 148 136 129 124 132 139 142 142 144 140 136 131 133 137 139 138 133 133 132 132 125 125 134 145 143 138 133 112 92 69 60 38 18 4 346 336 323 313 307 302 312 317 318 321 335 331 317 322 330 331 330 331 327 329 325
170 169 167 168 170 168 167 155 154 155 149 146 149 146 139 140 139 136 140 140 138 142 146 146 138 133 133 144 150 145 127 130 127 133 142 146 146 145 142 136 133 128 129 131 129 122 121 116 117 117 120 131 137 141 142 132 132 100 91 71 54 30 17 357 348 338 328 323 319 322 327 322 321 316 318 333 338 336 347 335 320 321 322 323 327
174 169 168 170 168 156 141 136 128 130 133 132 133 135 135 132 131 132 131 126 129 136 137 127 128 130 118 122 132 132 146 152 150 150 149 150 153 144 144 144 143 140 133 123 116 112 110 108 110 117 123 131 133 127 120 124 115 97 75 60 40 32 16 354 342 334 327 326 321 324 325 327 329 333 338 346 346 332 325 325 312 312 316 315 319
170 168 167 157 140 137 134 131 133 131 136 141 142 138 134 134 133 131 131 131 131 132 113 112 123 139 145 145 148 154 156 153 150 153 157 155 152 144 141 149 148 142 135 128 119 116 112 116 115 120 119 114 112 107 101 94 89 88 83 45 29 25 7 347 337 334 329 326 325 328 325 324 327 330 325 323 322 322 321 322 317 318 319 315 306
174 168 161 150 147 139 139 144 143 149 149 141 139 139 137 137 134 131 133 137 140 143 144 147 150 149 148 151 155 159 157 153 157 163 160 153 146 148 148 149 146 139 140 138 138 134 126 118 117 116 116 112 103 105 102 96 92 75 59 40 27 10 348 336 324 324 322 317 316 316 310 309 315 320 316 319 322 325 321 319 318 322 324 326 321
175 175 159 154 154 155 155 152 153 150 147 146 144 140 139 139 141 142 141 144 149 151 156 159 156 158 158 162 159 155 147 153 161 160 159 155 154 149 147 142 143 141 142 139 134 134 132 126 120 123 129 125 120 100 98 102 97 76 59 33 15 349 332 309 309 311 310 304 304 301 303 303 311 315 317 324 322 319 319 319 317 318 317 316 311
183 173 167 164 163 163 158 159 156 152 153 148 146 147 151 150 149 151 155 155 151 160 161 156 159 158 157 155 151 145 139 156 155 156 154 154 153 145 141 140 138 144 144 141 139 136 135 132 134 135 131 133 124 123 132 123 107 85 70 31 342 333 318 316 312 300 292 288 287 292 294 304 308 310 318 319 319 315 321 321 320 316 313 306 305
186 177 170 175 168 165 165 164 163 163 158 156 156 158 160 161 157 153 147 153 160 157 157 157 155 159 159 154 144 141 141 158 151 149 149 148 147 140 134 133 130 133 136 136 134 139 145 146 145 140 137 131 135 152 175 150 139 114 96 30 27 340 334 320 309 300 294 282 284 288 295 302 302 309 315 319 320 319 320 316 317 315 315 308 307
185 175 175 176 173 170 171 172 167 163 161 159 160 163 162 155 156 159 161 164 165 165 162 158 158 154 154 149 139 141 150 154 148 147 146 144 140 132 122 123 122 118 116 116 126 131 140 142 134 132 139 144 172 176 163 154 151 139 124 82 45 330 314 301 287 280 276 275 285 291 300 308 307 310 313 318 315 311 310 305 312 311 306 305 302
188 176 183 182 182 180 171 170 164 160 162 162 164 165 164 163 159 156 153 151 141 136 139 149 156 157 154 146 138 141 151 154 148 149 146 142 136 126 128 128 125 124 117 121 126 127 135 139 134 134 144 150 184 160 151 148 145 150 158 122 30 329 298 282 279 285 305 315 313 310 310 310 311 312 314 315 316 311 307 309 306 307 313 312 309
196 193 195 190 186 179 173 165 165 167 167 166 169 166 161 157 155 155 153 157 155 161 163 162 161 156 152 149 142 143 149 155 150 148 146 143 135 130 131 125 123 121 125 128 128 134 140 140 135 140 146 158 172 157 158 148 153 147 118 87 15 327 305 293 312 343 331 322 318 316 314 315 316 316 318 321 316 316 317 315 317 324 316 313 311
194 193 198 192 189 179 175 168 167 168 169 174 170 164 156 149 159 165 163 162 166 166 155 151 159 162 155 153 153 148 151 155 150 149 149 151 146 143 140 131 127 130 126 127 129 132 139 142 140 144 149 157 165 156 163 150 146 122 116 75 354 319 305 301 332 340 334 325 318 315 316 317 322 325 323 320 319 323 319 314 320 323 311 308 306
194 192 186 171 174 177 174 168 167 168 174 173 167 163 167 165 158 160 161 157 154 148 154 152 149 150 149 143 145 144 144 151 151 151 152 153 149 138 139 133 133 144 141 139 141 135 144 151 159 172 175 177 168 163 176 165 136 132 134 134 289 301 298 331 337 325 326 317 307 310 314 326 333 326 317 318 318 320 320 323 324 315 305 302 302
175 162 152 153 154 161 171 172 171 172 172 166 164 166 155 151 164 163 156 154 150 152 152 154 151 148 141 141 145 146 145 149 153 154 156 156 153 142 141 141 146 148 150 152 147 155 156 164 173 179 168 170 169 172 182 150 140 146 124 127 228 285 340 52 333 314 286 286 293 315 321 327 325 317 312 309 310 324 333 325 312 303 296 295 297
159 160 151 151 155 162 166 175 171 174 171 167 159 155 163 163 159 161 155 150 148 149 152 149 141 136 136 138 138 144 149 147 154 156 157 158 159 156 159 159 154 148 145 148 163 160 165 171 175 186 182 176 175 179 173 161 138 115 119 157 233 279 14 70 324 312 296 297 310 310 311 317 311 306 300 304 316 326 319 312 305 297 292 290 293
154 153 158 162 160 163 167 167 168 166 159 153 158 162 161 158 163 159 155 154 155 151 147 144 141 130 108 133 139 142 147 151 151 158 160 162 164 163 152 168 164 150 143 139 159 170 169 168 175 187 182 180 174 181 169 178 126 97 166 244 304 310 52 14 281 280 296 308 302 308 314 320 325 331 324 323 321 317 311 305 299 293 285 281 279
152 153 153 160 167 168 168 166 168 164 164 166 162 162 159 159 161 157 154 153 153 151 152 149 142 134 113 111 134 143 151 154 157 158 164 165 167 167 162 153 159 151 144 159 171 164 163 169 180 183 182 176 172 170 177 138 105 128 152 167 319 32 50 348 319 314 303 298 300 311 321 327 336 334 328 324 318 315 308 300 293 285 279 274 272
137 144 155 160 162 168 168 165 160 163 162 159 158 155 161 161 158 163 162 158 155 153 156 152 147 148 149 150 155 160 161 159 163 164 166 168 170 169 164 159 154 144 143 148 152 161 169 176 182 186 181 171 166 169 163 148 145 158 127 120 83 64 61 67 347 306 293 285 303 320 327 334 333 329 328 323 317 312 303 296 290 279 269 268 269
145 154 161 163 162 159 153 159 161 162 165 162 161 161 160 161 161 166 160 162 162 161 161 162 162 159 152 161 161 166 167 162 164 171 172 172 173 172 167 159 155 158 155 153 153 162 172 176 185 184 171 165 159 138 127 136 141 144 130 93 81 66 95 117 348 326 298 307 317 317 326 332 325 316 320 320 312 305 303 297 283 275 265 259 248
153 157 150 149 148 140 144 135 136 140 149 156 160 161 162 166 164 160 164 165 166 162 161 163 163 165 169 162 166 165 167 168 170 173 177 180 179 180 173 167 165 166 156 159 161 164 171 182 183 175 164 146 121 110 117 126 131 108 80 70 84 81 174 129 350 327 297 304 314 319 315 317 316 320 321 318 315 320 326 322 324 318 323 322 313
138 137 142 134 130 141 148 148 142 134 144 138 135 148 154 165 161 164 172 168 170 167 168 173 172 175 177 174 160 164 175 179 175 179 179 180 181 179 176 173 171 164 160 169 170 172 175 168 155 147 141 142 137 129 119 99 95 78 69 45 57 343 287 167 338 293 290 304 311 316 316 311 312 319 324 326 318 321 328 322 321 322 330 329 322
151 153 148 144 149 153 150 149 150 156 165 165 161 161 172 176 175 181 182 180 174 180 177 182 184 182 180 169 156 167 183 190 188 184 185 183 183 175 169 170 177 176 165 163 150 139 136 157 146 101 88 84 85 65 78 94 119 109 49 32 344 317 310 327 326 297 279 311 309 313 312 316 322 323 321 322 316 317 326 324 327 324 329 329 331
122 129 136 139 151 157 156 163 167 163 166 169 168 170 178 184 187 192 216 190 202 188 185 190 192 189 179 171 167 186 196 203 208 196 189 183 173 168 176 181 178 176 170 150 128 99 104 118 152 146 133 139 132 145 142 132 201 127 89 312 337 309 326 235 271 285 300 328 330 326 320 323 317 320 317 319 321 322 325 325 326 323 319 327 323
117 133 138 149 151 156 157 161 162 162 166 172 155 105 52 153 178 186 195 159 131 109 180 201 191 182 183 195 187 185 196 207 188 185 184 186 188 186 182 177 177 166 168 159 142 157 171 168 178 170 160 162 170 174 177 176 197 219 225 221 218 307 244 233 266 265 305 318 316 313 315 320 315 319 319 316 318 323 329 333 321 325 329 331 325
132 135 146 158 164 160 155 158 168 162 167 166 169 166 141 68 97 133 159 166 165 159 151 159 160 182 187 187 200 199 105 140 165 179 184 188 187 189 187 186 181 179 173 154 154 171 173 180 184 181 183 168 178 184 175 180 199 191 205 204 217 233 247 243 252 278 300 313 309 303 304 311 310 312 314 317 319 321 325 318 317 327 331 328 322
153 160 153 150 146 149 145 147 148 158 167 167 176 176 177 181 206 161 163 180 188 190 185 175 182 186 193 184 166 177 180 177 178 184 186 188 189 188 189 185 186 182 184 164 160 191 191 184 179 187 175 182 194 178 182 186 191 192 181 189 214 213 220 234 254 275 290 298 302 302 303 306 304 305 309 316 320 319 325 327 332 337 326 321 316
127 137 139 135 132 132 131 141 157 161 173 172 187 189 191 197 200 203 118 188 199 202 203 198 196 196 194 191 189 189 184 185 184 184 185 188 187 188 188 187 186 186 175 169 192 193 194 194 187 178 182 192 187 183 187 188 185 192 195 182 193 210 210 236 282 286 275 278 276 285 290 297 296 299 304 313 321 320 324 326 329 329 325 320 315
130 143 149 150 145 153 154 155 159 170 165 177 190 198 225 224 244 195 175 136 193 221 216 206 201 196 197 193 191 192 188 186 187 184 184 186 185 184 184 189 190 192 190 187 185 199 193 195 192 187 188 183 181 171 182 187 186 186 195 211 201 198 216 224 214 246 266 278 273 270 282 284 282 291 303 312 316 316 321 328 333 334 330 327 320
66 114 129 135 147 152 153 143 151 153 156 178 193 208 219 243 235 208 206 212 217 213 209 208 207 196 190 192 194 194 193 189 186 184 184 186 187 188 183 181 191 200 200 189 194 201 198 195 187 185 180 183 186 178 185 180 184 189 194 194 196 199 211 209 213 225 252 262 264 267 275 277 276 283 295 305 310 316 318 321 325 324 321 322 326
45 80 110 128 135 141 151 154 155 164 173 193 189 200 210 215 222 234 234 230 223 219 213 188 182 211 196 192 195 196 194 189 188 189 187 188 188 184 179 193 190 203 202 193 198 205 198 200 177 183 179 183 163 177 177 180 185 187 190 178 195 200 200 201 215 227 242 247 249 261 273 276 277 276 278 282 277 291 305 309 313 316 317 316 321
3 23 99 132 143 142 146 148 156 166 168 169 169 191 199 215 225 238 238 235 234 233 204 162 149 279 233 212 199 201 199 197 197 196 196 196 196 194 197 194 202 197 200 200 200 200 204 200 180 164 180 177 178 172 165 178 175 178 197 195 190 202 217 186 195 210 228 244 246 242 253 261 264 261 270 279 288 291 293 299 307 310 314 316 319
351 331 6 143 124 131 135 148 151 159 158 158 169 178 206 214 224 223 232 238 232 219 215 211 206 206 205 212 189 196 202 202 202 206 206 204 204 206 201 200 199 198 203 202 202 205 211 190 178 177 181 171 168 163 168 174 170 175 184 187 198 207 213 212 222 217 219 242 238 237 250 256 255 259 269 275 275 280 282 294 303 307 308 313 314
353 337 335 332 301 271 156 147 151 145 164 151 178 178 213 219 227 230 233 232 230 226 225 216 215 219 219 177 181 185 184 203 201 201 201 204 207 208 199 196 199 210 205 204 195 202 206 183 183 175 163 165 163 173 173 172 168 174 178 177 195 205 212 202 205 208 219 224 233 232 231 241 246 252 262 266 267 270 273 278 291 299 307 309 311
344 329 329 318 320 305 311 325 98 115 160 164 200 200 217 226 231 235 239 237 240 237 234 228 231 229 208 179 192 186 200 210 209 206 205 206 208 207 195 197 202 205 205 204 204 205 201 184 170 175 176 170 169 171 183 167 164 164 166 199 196 210 215 204 200 203 209 207 216 226 227 236 236 244 256 261 262 266 261 269 286 293 293 300 303
356 326 321 308 310 325 348 342 314 257 201 223 214 203 228 231 239 238 237 240 244 245 239 240 241 228 199 208 203 201 211 217 216 212 213 211 211 205 205 207 202 203 200 199 205 203 196 185 176 179 172 168 173 178 175 164 153 182 193 202 215 223 219 199 202 203 207 214 225 230 229 217 235 240 250 259 265 269 270 281 282 282 283 292 300
3 335 337 324 337 334 319 305 302 300 280 257 249 231 241 240 244 244 247 248 248 249 252 252 243 225 211 204 206 213 220 234 228 226 224 216 216 216 211 211 210 207 204 205 201 201 196 180 178 179 177 175 170 180 160 173 186 192 200 204 213 220 221 216 208 207 207 212 214 213 218 225 226 235 247 259 263 261 266 262 272 271 276 290 304
4 336 339 326 306 280 282 283 287 273 267 252 248 249 248 249 246 246 250 252 253 253 257 257 256 224 222 213 210 215 226 231 232 232 232 224 220 217 212 213 211 208 206 203 195 191 181 178 182 183 180 177 177 171 176 179 172 189 192 201 214 217 220 210 200 209 201 205 214 224 222 214 233 242 248 250 256 263 263 262 260 266 276 290 293
320 346 303 293 289 298 296 289 286 278 272 274 276 265 253 256 255 254 254 257 253 252 253 255 256 239 232 221 216 215 228 230 230 231 230 226 220 218 215 208 204 199 199 185 179 175 179 184 188 183 171 173 178 175 177 174 167 175 177 185 203 213 214 206 208 208 196 201 208 216 216 215 226 230 233 244 245 253 256 248 247 259 279 287 297
324 337 316 311 308 304 293 280 276 279 292 292 279 273 265 260 255 259 255 257 259 255 254 256 253 242 233 219 214 220 228 230 233 233 230 225 222 210 189 184 190 183 180 187 191 181 175 183 180 175 178 182 177 179 182 176 180 185 175 175 189 210 210 204 209 203 188 193 204 213 217 218 216 225 233 236 240 241 244 239 241 268 279 287 299
347 332 327 314 312 307 311 299 302 290 289 282 283 281 274 257 256 256 254 258 258 259 259 257 252 246 238 231 227 230 230 232 233 232 230 228 216 208 199 190 191 182 189 184 178 178 185 183 177 179 182 179 175 178 185 176 185 189 185 185 199 211 207 194 186 189 197 191 204 211 213 216 222 221 230 235 235 239 239 244 244 242 252 272 286
348 335 324 317 309 299 300 297 294 290 284 280 275 276 273 271 265 260 258 258 260 261 262 258 256 252 244 239 237 238 236 234 238 236 231 229 216 204 196 191 183 190 190 189 181 182 184 189 196 187 181 177 171 172 185 184 188 190 190 192 199 207 200 190 184 190 191 200 202 200 211 213 219 221 234 241 245 244 248 248 228 239 247 269 280
350 337 324 306 307 298 298 302 298 289 284 278 275 272 274 277 275 270 270 266 264 263 264 262 259 256 253 251 246 247 247 248 248 249 238 229 206 204 193 193 188 181 171 177 184 182 185 186 188 189 189 188 182 183 181 187 189 192 191 203 197 203 198 194 183 192 183 194 199 207 213 216 217 219 225 225 231 229 234 234 238 252 254 256 273
332 324 312 312 293 297 287 286 280 283 275 283 282 279 280 278 277 276 274 270 271 266 265 267 266 263 261 260 255 254 253 251 242 245 239 231 209 196 188 184 185 176 179 189 191 188 192 191 189 191 194 195 191 189 184 180 188 192 192 195 203 205 202 201 196 189 196 189 198 206 216 217 217 218 223 227 227 228 231 234 234 240 253 260 260
321 305 299 294 290 282 289 286 281 281 284 281 281 282 281 279 278 277 274 276 273 274 270 270 269 270 264 265 258 250 238 234 240 235 235 222 214 194 189 189 187 189 196 196 196 191 188 192 192 196 196 200 198 199 196 192 193 194 192 197 207 207 207 207 210 203 198 194 199 205 212 221 219 221 221 223 225 228 233 236 227 235 242 242 248
310 302 294 289 284 284 287 285 283 281 284 278 278 277 280 277 276 273 277 276 278 280 280 278 277 275 270 260 260 256 249 241 242 237 229 223 216 207 202 195 203 200 207 209 206 204 195 193 195 198 198 202 204 207 203 204 196 195 204 207 208 209 210 209 211 219 220 216 199 202 216 219 221 223 221 220 217 219 224 224 228 228 235 236 242